Regional Weather Roundup
Issued by NWS

Home | Current Version | Previous Version | Graphics & Text | Print | Product List | Glossary Off
Versions: 1 2 3 4 5 6 7 8 9 10 11 12 13 14 15 16 17 18 19 20 21 22 23 24 25 26 27 28 29 30 31 32 33 34 35 36 37 38 39 40 41 42 43 44 45 46 47 48 49 50

000
ASUS43 KMKX 260411
RWRWI

WISCONSIN REGIONAL WEATHER ROUNDUP
NATIONAL WEATHER SERVICE MILWAUKEE/SULLIVAN WI
1100 PM CDT MON JUL 25 2016

NOTE: "FAIR" INDICATES FEW OR NO CLOUDS BELOW 12,000 FEET WITH NO
SIGNIFICANT WEATHER AND/OR OBSTRUCTIONS TO VISIBILITY.

WIZ001-002-006>008-014>016-023>028-260500-
NORTHWEST WISCONSIN

CITY           SKY/WX    TMP DP  RH WIND       PRES   REMARKS
SUPERIOR ARPT  CLEAR     71  66  85 SW6       29.98R
ASHLAND        CLEAR     66  62  87 SW8       29.99R
HAYWARD        CLEAR     67  63  87 S5        30.03R
SIREN          CLEAR     70  66  88 CALM      30.03S
CUMBERLAND     CLEAR     66  63  88 CALM      30.05R
RICE LAKE      CLEAR     66  63  90 CALM      30.05S
CHETEK         CLEAR     68  66  94 CALM      30.04S
LADYSMITH      CLEAR     65  62  90 CALM      30.06R
EAU CLAIRE     CLEAR     68  64  87 CALM      30.03R
MENOMONIE      CLEAR     70  62  76 CALM      30.04S
NEW RICHMOND   CLEAR     69  66  92 CALM      30.04S
OSCEOLA        CLEAR     69  68  98 CALM      30.06R
$$

WIZ003>005-009-010-017-018-260500-
NORTH CENTRAL WISCONSIN

CITY           SKY/WX    TMP DP  RH WIND       PRES   REMARKS
MANITOWISH WTR CLEAR     60  60 100 CALM      30.04R
ARBOR VITAE    CLEAR     64  61  89 CALM      30.04S
WOODRUFF       CLEAR     64  61  89 CALM      30.04S
RHINELANDER    CLEAR     60  57  89 W5        30.05S
EAGLE RIVER    CLEAR     59  58  98 CALM      30.03S
LAND O LAKES   CLEAR     58  57  96 CALM      30.04S
PHILLIPS       CLEAR     64  62  96 CALM      30.04R
TOMAHAWK       CLEAR     59  58  95 CALM      30.05S
MEDFORD        CLEAR     60  60 100 CALM      30.05S
MERRILL        CLEAR     63  61  94 CALM      30.05S
$$

WIZ029-030-035-036-043>047-260500-
CENTRAL WISCONSIN

CITY           SKY/WX    TMP DP  RH WIND       PRES   REMARKS
WAUSAU         CLEAR     68  61  78 CALM      30.03R
MOSINEE        CLEAR     68  61  77 W5        30.06R
MARSHFIELD     CLEAR     68  61  78 W5        30.05R
STEVENS POINT  CLEAR     64  61  92 CALM      30.05R
WAUPACA        CLEAR     68  66  93 CALM      30.03S
WAUTOMA        CLEAR     66  63  90 CALM      30.04S
WISC RAPIDS    CLEAR     65  62  90 CALM      30.06R
CAMP DOUGLAS   CLEAR     64  64  98 NW1       30.05R
$$

WIZ011>013-019>022-031-037>040-048>050-260500-
NORTHEAST WISCONSIN

CITY           SKY/WX    TMP DP  RH WIND       PRES   REMARKS
ANTIGO         CLEAR     62  60  94 CALM      30.06R
SHAWANO        CLEAR     69  63  83 W3        30.02R
OCONTO         CLEAR    N/A N/A N/A CALM      29.99R
STURGEON BAY   CLEAR     68  64  87 CALM      30.00R
GREEN BAY      CLEAR     68  66  93 W5        30.00R
MANITOWOC      CLEAR     72  63  73 W6        30.01R
APPLETON       CLEAR     70  61  73 VRB5      30.01R
CLINTONVILLE   CLEAR     66  61  82 CALM      30.02R
OSHKOSH        CLEAR     72  62  71 W5        30.02R
$$

WIZ032>034-041-042-053>061-260500-
SOUTHWEST WISCONSIN

CITY           SKY/WX    TMP DP  RH WIND       PRES   REMARKS
LA CROSSE      CLEAR     72  66  81 E5        30.04R
SPARTA         CLEAR     65  64  99 CALM      30.06S
VIROQUA        CLEAR     67  65  90 CALM      30.07S
BOSCOBEL       CLEAR     67  65  93 CALM      30.05S
PRAIRIE DU CHI CLEAR     68  65  88 CALM      30.05S
PLATTEVILLE    CLEAR     69  68  97 CALM      30.06S
$$

WIZ056-057-062-063-064-067-068-260500-
SOUTH CENTRAL WISCONSIN

CITY           SKY/WX    TMP DP  RH WIND       PRES   REMARKS
REEDSBURG      CLEAR     69  67  92 CALM      30.05S
BARABOO/DELLS  CLEAR     67  63  85 CALM      30.05S
LONE ROCK      CLEAR     67  65  93 CALM      30.05R FOG
MINERAL POINT  CLEAR     70  64  83 CALM      30.07S
MADISON        CLEAR     69  65  86 CALM      30.04R
MIDDLETON      CLEAR     68  67  98 CALM      30.05S
WATERTOWN      CLEAR     68  68 100 CALM      30.03S
MONROE         CLEAR     73  63  68 NW6       30.05S
JANESVILLE     CLEAR     72  70  94 CALM      30.03S
$$

WIZ051-052-058>065-066-070>072-260500-
SOUTHEAST WISCONSIN

CITY           SKY/WX    TMP DP  RH WIND       PRES   REMARKS
MILWAUKEE      PTCLDY    76  64  66 SW6       30.02R
WAUKESHA       CLEAR     68  61  77 CALM      30.04S
MILWAUKEE/TIMM CLEAR     72  59  64 NW5       30.03S
RACINE         CLEAR     72  62  71 SW5       30.03S
BURLINGTON     CLEAR     66  65  97 CALM      30.03S
KENOSHA        CLEAR     67  62  84 W3        30.03S
FOND DU LAC    CLEAR     70  62  76 W5        30.02S
SHEBOYGAN      CLEAR     67  63  87 W3        30.01S
WEST BEND      CLEAR     66  63  88 CALM      30.03S
JUNEAU         CLEAR     67  64  89 CALM      30.04S
$$

LSZ147-162-260500-
LAKE SUPERIOR

STATION/POSITION TIME  TEMP    WIND        PRES    WAVE
                       AIR SEA DIR/SP/G            HT/PER
                 (UTC) (F)     (DEG/KT/KT) (MB)    (FT/S)
W MID LAKE BUOY  0350   64 60  220/  6/  6 1013.7S   1/ 4
DEVILS ISLAND    0400   73     220/ 10/ 11 1014.3R
SAXON HARBOR     0340   69     200/  6/  7 1014.9R
$$

LMZ867-665-643>646-260500-
LAKE MICHIGAN

STATION/POSITION TIME  TEMP    WIND        PRES    WAVE
                       AIR SEA DIR/SP/G            HT/PER
                 (UTC) (F)     (DEG/KT/KT) (MB)    (FT/S)
CHAMBERS ISLAND  0300   67     180/  1/  5 1014.9R
S GREEN BAY BUOY 0300   76 75  270/  6/  6   N/A
N MID LAKE BUOY  0350   71 70  160/  6/  6 1014.7R   1
NORTHPORT PIER   0300   73     130/  6/  8 1014.9R
SISTER BAY       0321   71        CALM       N/A
ALGOMA LAKESHORE 0313             CALM       N/A
KEWAUNEE LAKESHO 0300   72     300/  3/  3   N/A
SHEBOYGAN LAKESH 0400   75     270/  6/  7 1016.1R
PORT WASHINGTON  0340   70     280/  2/  3 1016.9S
ATWATER BUOY     0400   62 52  200/  2/  2 1017.9R
MILWAUKEE LAKESH 0310   68      CALM  /  1   N/A
S MID LAKE BUOY  0350   74 74  250/  4/  4 1015.6F   0
KENOSHA   LAKESH 0400   76     230/  2/  3 1016.3S
$$

TC  - TEMPERATURE IN CELSIUS
VSB - VISIBILITY IN STATUTE MILES
WCI - WIND CHILL INDEX
HX  - HEAT INDEX





USA.gov is the U.S. government's official web portal to all federal, state and local government web resources and services.